#datint,netname,site,siteID,timestamp,IntT,BattV,AirT2,AirT,AirT_Avg,AirT_Max,AirT_Min,RH_Avg,RH_Max,RH_Min,EA_Avg,Td_Avg,Td_Max,Td_Min,WindS_Smp,WindS_Avg,WindD_Avg,WindD_SD,WindS_Max,ETo,ETr,SoilT4,SoilT8,SoilVWC8,SolarW_Avg,wetstate_Avg,wetT_Avg,Precip_accum,Precip_WPG,Precip_TB
15min,AgWx,beryljct,423,23APR2018:00:00:00,49.0,13.05,48.6,47.7,48.7,51.1,47.4,43,53,36,0.432,26.8,32.9,21.9,2.806,4.7,186,8.2,6.8,0.00021,0.00031,54.9,54.2,20,0,0,47.2,13.42,0.00,0.00
15min,AgWx,beryljct,423,23APR2018:00:15:00,48.3,13.04,47.9,49.8,47.4,49.8,45.0,42,49,38,0.470,25.3,27.2,22.8,0.745,0.7,153,1.8,3.8,-0.00020,-0.00028,54.6,54.2,19,0,0,44.2,13.42,0.00,0.00
15min,AgWx,beryljct,423,23APR2018:00:30:00,48.0,13.04,49.3,45.9,49.4,50.9,45.9,42,61,36,0.622,26.9,33.2,24.8,0.438,0.7,152,0.2,1.8,-0.00020,-0.00028,54.3,53.9,19,0,0,45.3,13.42,0.00,0.00
15min,AgWx,beryljct,423,23APR2018:00:45:00,47.3,13.03,49.1,50.8,48.3,50.8,45.9,45,58,35,0.439,27.9,32.2,23.8,2.148,0.7,145,9.9,2.4,-0.00020,-0.00028,54.0,54.1,20,0,0,44.0,13.43,0.00,0.00
15min,AgWx,beryljct,423,23APR2018:01:00:00,46.8,13.02,45.6,45.5,45.9,50.8,44.1,56,62,35,0.590,30.8,33.1,24.5,0,0.6,126,0.3,3.4,-0.00021,-0.00031,53.8,54.1,19,0,0,43.2,13.43,0.00,0.00
15min,AgWx,beryljct,423,23APR2018:01:15:00,46.4,13.01,47.3,47.2,46.8,48.0,45.4,51,61,42,0.673,29.4,34.4,25.3,2.258,2.0,180,15,2.9,-0.00005,-0.00004,53.5,54.0,19,0,0,43.7,13.43,0.00,0.00
15min,AgWx,beryljct,423,23APR2018:01:30:00,45.7,13.01,44.2,44.3,44.2,47.2,41.8,63,68,53,0.654,32.3,34.6,28.7,0.504,0.5,246,34,2.2,-0.00022,-0.00032,53.3,54.0,19,0,0,41.7,13.43,0.00,0.00
15min,AgWx,beryljct,423,23APR2018:01:45:00,44.9,13.01,42.4,41.7,42.3,45.1,39.5,67,75,57,0.585,32.2,34.7,30.4,0.811,1.2,262,56,3.8,-0.00015,-0.00020,53.0,53.9,19,0,0,40.5,13.43,0.00,0.00
15min,AgWx,beryljct,423,23APR2018:02:00:00,44.1,13.01,44.2,45.6,43.5,45.6,41.8,53,64,41,0.481,27.5,31.6,22.1,0,0.6,299,43,2.8,-0.00019,-0.00028,52.8,53.8,19,0,0,40.0,13.43,0.00,0.00
15min,AgWx,beryljct,423,23APR2018:02:15:00,43.7,13,44.8,45.5,44.4,45.7,42.9,53,65,40,0.426,28.2,32.1,22.3,1.556,1.3,277,41,3.5,-0.00012,-0.00015,52.6,53.7,19,0,0,41.3,13.43,0.00,0.00
15min,AgWx,beryljct,423,23APR2018:02:30:00,43.4,12.99,44.0,42.7,43.9,46.3,42.2,49,68,37,0.587,25.7,33.6,21.3,0,1.0,329,12,2.6,-0.00015,-0.00020,52.3,53.7,19,0,0,41.4,13.43,0.00,0.00
15min,AgWx,beryljct,423,23APR2018:02:45:00,43.2,12.98,45.4,45.0,44.7,47.3,42.6,53,63,38,0.525,28.6,32.8,22.8,2.28,0.6,220,62,3.6,-0.00021,-0.00031,52.0,53.6,19,0,0,40.9,13.43,0.00,0.00
15min,AgWx,beryljct,423,23APR2018:03:00:00,43.1,12.97,43.0,41.1,43.0,45.9,41.0,61,69,44,0.596,30.3,33.4,25.3,3.135,2.6,205,16,3.5,-0.00003,-0.00001,51.8,53.5,19,0,0,41.7,13.43,0.00,0.00
15min,AgWx,beryljct,423,23APR2018:03:15:00,42.8,12.97,43.6,41.2,43.2,46.9,40.7,49,68,36,0.469,25.2,31.3,21.1,5.415,5.1,178,13,7.1,0.00016,0.00023,51.6,53.4,19,0,0,41.7,13.43,0.00,0.00
15min,AgWx,beryljct,423,23APR2018:03:30:00,42.4,12.95,42.6,46.9,41.7,46.9,39.6,53,62,40,0.431,25.5,27.7,23.5,6.489,5.4,185,6.4,7.0,0.00015,0.00021,51.4,53.3,19,0,0,40.8,13.44,0.00,0.00
15min,AgWx,beryljct,423,23APR2018:03:45:00,42.4,12.96,46.0,46.9,45.6,47.3,43.4,42,52,36,0.395,23.6,27.7,21.4,5.809,5.7,175,5.5,7.0,0.00025,0.00034,51.1,53.2,19,0,0,44.5,13.43,0.00,0.00
15min,AgWx,beryljct,423,23APR2018:04:00:00,41.9,12.94,39.4,39.3,39.9,46.9,37.8,53,60,36,0.447,24.2,26.7,21.5,5.722,4.8,177,8.0,6.7,0.00012,0.00017,50.9,53.2,19,0,0,40.0,13.43,0.00,0.00
15min,AgWx,beryljct,423,23APR2018:04:15:00,41.2,12.94,41.2,41.2,40.5,43.8,37.7,55,67,46,0.431,25.5,28.1,23.5,3.201,2.8,252,57,5.7,0.00001,0.00004,50.7,53.1,19,0,0,38.8,13.43,0.00,0.00
15min,AgWx,beryljct,423,23APR2018:04:30:00,41.0,12.92,42.6,41.7,42.2,43.2,40.9,45,51,42,0.386,22.5,24.5,20.9,5.656,3.1,317,5.0,5.7,0.00006,0.00011,50.5,53.0,19,0,0,39.8,13.43,0.00,0.00
15min,AgWx,beryljct,423,23APR2018:04:45:00,40.7,12.92,39.8,40.0,39.6,41.7,38.4,53,58,43,0.465,23.8,25.4,20.9,4.932,4.9,318,9.8,6.0,0.00012,0.00018,50.3,52.9,19,0,0,38.9,13.43,0.00,0.00
15min,AgWx,beryljct,423,23APR2018:05:00:00,40.7,12.91,44.4,45.5,43.4,45.6,40.0,46,55,37,0.397,24.0,25.6,21.0,3.902,4.0,301,8.3,5.4,0.00012,0.00019,50.1,52.8,19,0,0,41.5,13.43,0.00,0.00
15min,AgWx,beryljct,423,23APR2018:05:15:00,40.9,12.91,44.3,44.9,44.0,46.7,41.6,43,54,34,0.395,22.9,26.4,20.0,0.614,2.4,310,13,4.6,0.00002,0.00006,49.9,52.5,19,0,0,41.9,13.43,0.00,0.00
15min,AgWx,beryljct,423,23APR2018:05:30:00,41.1,12.88,47.4,46.2,46.8,48.0,45.0,38,42,33,0.441,22.3,24.3,20.2,0,0.4,276,0.0,1.1,-0.00025,-0.00037,49.7,52.6,19,0,0,41.7,13.43,0.00,0.00
15min,AgWx,beryljct,423,23APR2018:05:45:00,41.3,12.89,44.2,39.8,44.5,46.8,39.6,45,55,39,0.431,24.3,25.6,23.2,3.793,1.6,208,31,4.8,-0.00007,-0.00008,49.5,52.5,19,0,0,40.8,13.43,0.00,0.00
15min,AgWx,beryljct,423,23APR2018:06:00:00,40.7,12.89,41.2,41.8,40.7,42.9,38.7,46,51,42,0.428,21.7,23.4,21.0,2.696,2.8,186,7.1,4.1,0.00004,0.00007,49.3,52.4,19,0,0,38.7,13.43,0.00,0.00
15min,AgWx,beryljct,423,23APR2018:06:15:00,40.3,12.87,42.7,38.9,42.5,45.7,38.9,48,63,37,0.506,23.8,27.4,20.9,2.718,2.3,202,40,3.7,0.00027,0.00046,49.1,52.3,19,0,0,40.4,13.43,0.00,0.00
15min,AgWx,beryljct,423,23APR2018:06:30:00,39.5,12.87,37.1,36.8,37.0,38.7,35.6,56,64,49,0.394,22.9,27.3,20.3,3.508,3.5,334,13,6.1,0.00027,0.00048,48.9,51.7,19,0,0,36.6,13.43,0.00,0.00
15min,AgWx,beryljct,423,23APR2018:06:45:00,38.6,12.87,36.5,37.0,36.1,37.3,34.9,58,65,49,0.375,22.5,24.5,19.8,3.705,3.7,56,9.0,6.1,0.00028,0.00048,48.7,51.6,19,1,0,35.6,13.43,0.00,0.00
15min,AgWx,beryljct,423,23APR2018:07:00:00,37.7,12.87,36.8,37.2,36.3,37.4,34.9,58,65,49,0.431,22.9,24.5,19.8,2.565,1.3,193,46,4.5,0.00016,0.00025,48.6,51.8,19,12,0,36.0,13.43,0.00,0.00
15min,AgWx,beryljct,423,23APR2018:07:15:00,37.5,12.89,38.0,36.8,37.7,40.1,36.6,59,66,47,0.465,24.7,26.3,21.4,3.179,0.6,221,12,3.2,0.00027,0.00032,48.4,51.9,19,45,0,43.1,13.43,0.00,0.00
15min,AgWx,beryljct,423,23APR2018:07:30:00,37.9,12.87,37.6,39.4,37.1,39.4,35.7,63,77,48,0.392,25.6,29.3,21.3,1.228,0.6,147,0.1,3.1,0.00041,0.00047,48.2,51.4,19,84,0,51.4,13.43,0.00,0.00
15min,AgWx,beryljct,423,23APR2018:07:45:00,39.4,12.89,41.8,42.9,41.2,42.9,39.5,54,67,42,0.510,25.3,31.1,20.4,0.263,1.9,147,0.3,3.8,0.00070,0.00087,48.0,51.7,19,128,0,58.5,13.43,0.00,0.00
15min,AgWx,beryljct,423,23APR2018:08:00:00,41.6,12.89,44.2,44.7,43.8,45.0,42.3,59,65,53,0.640,30.2,33.6,27.3,2.718,1.1,157,28,2.7,0.00085,0.00098,47.9,51.6,19,174,0,64.8,13.43,0.00,0.00
15min,AgWx,beryljct,423,23APR2018:08:15:00,44.1,12.92,45.7,46.8,45.3,46.8,44.5,60,68,53,0.610,32.3,34.6,29.8,2.433,0.9,43,11,2.6,0.00109,0.00122,47.7,51.5,19,226,0,68.8,13.43,0.00,0.00
15min,AgWx,beryljct,423,23APR2018:08:30:00,46.8,12.98,48.4,49.7,48.0,49.7,46.8,55,65,47,0.586,32.5,36.0,29.5,0.877,1.0,333,15,2.8,0.00140,0.00157,47.6,51.4,19,278,0,74.9,13.43,0.00,0.00
15min,AgWx,beryljct,423,23APR2018:08:45:00,49.9,13.1,52.2,53.2,51.7,53.2,49.8,43,50,35,0.539,29.7,32.1,26.3,2.894,2.5,331,13,4.0,0.00189,0.00225,47.5,51.3,19,332,0,76.8,13.42,0.00,0.00
15min,AgWx,beryljct,423,23APR2018:09:00:00,52.9,13.34,54.2,55.0,53.9,55.0,53.2,37,44,33,0.499,28.3,32.0,25.7,2.959,2.1,0.9,27,3.8,0.00222,0.00260,47.5,51.2,19,387,0,80.5,13.42,0.00,0.00
15min,AgWx,beryljct,423,23APR2018:09:15:00,55.7,13.65,56.1,56.7,55.8,56.7,55.0,34,38,31,0.489,27.8,30.2,26.2,1.995,1.7,0.7,20,3.2,0.00254,0.00291,47.4,51.1,19,441,0,85.3,13.42,0.00,0.00
15min,AgWx,beryljct,423,23APR2018:09:30:00,58.3,14.31,58.1,59.5,57.9,59.5,56.7,30,34,26,0.521,26.5,30.6,22.8,1.71,1.6,351,4.6,2.3,0.00290,0.00330,47.5,51.0,19,493,0,89.6,13.41,0.00,0.00
15min,AgWx,beryljct,423,23APR2018:09:45:00,60.9,14.31,61.2,61.3,61.0,61.9,59.6,30,35,24,0.646,29.0,33.4,23.7,7.738,4.9,25,17,7.7,0.00362,0.00448,47.5,50.9,19,545,0,87.2,13.41,0.00,0.00
15min,AgWx,beryljct,423,23APR2018:10:00:00,62.7,14.23,60.7,60.5,60.7,61.3,60.3,33,39,27,0.584,31.7,35.5,26.7,7.914,7.0,48,11,9.1,0.00398,0.00503,47.7,50.8,19,593,0,83.5,13.41,0.00,0.00
15min,AgWx,beryljct,423,23APR2018:10:15:00,63.8,14.26,60.9,61.2,60.8,61.5,60.4,34,39,30,0.562,32.2,35.9,29.2,7.3,7.5,53,9.9,9.6,0.00425,0.00536,47.9,50.8,19,643,0,83.4,13.41,0.00,0.00
15min,AgWx,beryljct,423,23APR2018:10:30:00,64.8,14.18,62.5,63.2,62.4,63.5,61.3,29,35,23,0.494,29.4,33.6,24.1,5.064,7.6,42,13,12.0,0.00468,0.00591,48.1,50.7,19,689,0,85.3,13.40,0.00,0.00
15min,AgWx,beryljct,423,23APR2018:10:45:00,65.9,14.19,63.8,63.8,63.8,64.3,63.2,28,32,26,0.578,30.4,33.4,27.5,7.388,8.7,51,12,12.2,0.00505,0.00644,48.4,50.6,19,730,0,86.4,13.40,0.00,0.00
15min,AgWx,beryljct,423,23APR2018:11:00:00,66.9,14.15,64.5,64.8,64.5,65.1,63.8,28,35,24,0.538,30.4,36.2,27.0,7.651,9.1,60,12,12.6,0.00535,0.00681,48.7,50.6,19,770,0,86.7,13.40,0.00,0.00
15min,AgWx,beryljct,423,23APR2018:11:15:00,67.8,14.21,65.4,65.9,65.3,66.2,64.6,27,32,22,0.617,30.7,34.4,25.3,8.66,8.2,53,14,12.0,0.00556,0.00697,49.1,50.6,19,807,0,88.8,13.40,0.00,0.00
15min,AgWx,beryljct,423,23APR2018:11:30:00,68.7,14.1,66.2,66.2,66.2,66.7,65.6,28,33,24,0.585,32.0,37.0,28.1,5.196,8.1,70,14,12.0,0.00580,0.00723,49.5,50.6,19,841,0,90.2,13.40,0.00,0.00
15min,AgWx,beryljct,423,23APR2018:11:45:00,69.5,14.11,67.0,67.8,66.9,67.9,66.1,28,33,23,0.688,32.9,37.2,27.7,10.33,7.9,64,17,11.6,0.00599,0.00741,50.0,50.6,19,871,0,91.2,13.39,0.00,0.00
15min,AgWx,beryljct,423,23APR2018:12:00:00,70.3,13.69,67.4,67.9,67.4,68.3,66.7,27,32,22,0.622,32.4,37.0,26.7,9.89,7.8,77,19,14.3,0.00618,0.00763,50.5,50.6,19,898,0,92.2,13.39,0.00,0.00
15min,AgWx,beryljct,423,23APR2018:12:15:00,71.0,13.67,68.3,68.2,68.3,69.1,67.8,24,31,19,0.559,30.4,36.6,24.4,8.94,7.7,35,23,12.1,0.00642,0.00793,51.0,50.6,19,921,0,92.7,13.39,0.00,0.00
15min,AgWx,beryljct,423,23APR2018:12:30:00,71.7,13.66,68.5,68.6,68.5,69.2,68.1,25,31,21,0.490,31.7,37.0,26.6,3.968,7.6,77,18,12.2,0.00654,0.00804,51.6,50.7,19,945,0,93.2,13.39,0.00,0.00
15min,AgWx,beryljct,423,23APR2018:12:45:00,72.4,13.65,68.9,68.8,69.0,69.5,68.4,23,27,20,0.474,29.8,33.9,25.6,5.59,6.3,110,33,9.1,0.00659,0.00797,52.3,50.7,19,960,0,95.7,13.39,0.00,0.00
15min,AgWx,beryljct,423,23APR2018:13:00:00,73.2,13.64,69.4,69.8,69.5,70.5,68.6,23,29,18,0.529,29.6,36.5,23.9,3.003,4.5,88,17,8.4,0.00658,0.00773,52.9,50.8,19,974,0,98.6,13.39,0.00,0.00
15min,AgWx,beryljct,423,23APR2018:13:15:00,74.0,13.59,70.4,70.8,70.4,71.0,69.7,21,29,18,0.554,28.8,37.1,24.3,1.666,4.0,122,54,11.0,0.00656,0.00765,53.6,50.9,19,968,0,101.1,13.39,0.00,0.00
15min,AgWx,beryljct,423,23APR2018:13:30:00,74.8,13.7,70.7,71.6,70.8,71.6,70.3,20,28,17,0.516,28.3,36.5,24.1,1.293,3.3,91,16,6.5,0.00666,0.00766,54.3,51.0,19,987,0,103.9,13.39,0.00,0.00
15min,AgWx,beryljct,423,23APR2018:13:45:00,75.9,13.58,71.8,71.8,71.9,72.4,71.4,21,26,17,0.667,30.0,35.1,24.2,5.13,2.8,103,42,7.2,0.00671,0.00763,55.0,51.2,19,992,0,106.7,13.39,0.00,0.00
15min,AgWx,beryljct,423,23APR2018:14:00:00,76.7,13.54,71.8,72.5,71.9,72.8,71.4,21,28,17,0.626,29.9,37.6,24.0,3.639,4.0,74,29,7.7,0.00654,0.00766,55.7,51.3,19,950,0,101.6,13.39,0.00,0.00
15min,AgWx,beryljct,423,23APR2018:14:15:00,77.8,13.52,72.9,72.6,73.0,73.6,72.5,20,28,16,0.465,29.5,38.6,23.5,5.546,3.8,68,76,10.5,0.00697,0.00808,56.5,51.5,19,1004,0,103.2,13.39,0.00,0.00
15min,AgWx,beryljct,423,23APR2018:14:30:00,78.7,13.51,72.7,73.5,72.7,73.5,72.2,18,27,15,0.426,26.9,37.2,22.6,4.231,4.5,50,34,8.1,0.00703,0.00829,57.2,51.6,19,1005,0,99.3,13.39,0.00,0.00
15min,AgWx,beryljct,423,23APR2018:14:45:00,79.7,13.47,73.7,73.7,73.8,74.3,73.2,18,25,15,0.556,27.4,36.3,22.4,10,6.4,117,44,11.7,0.00774,0.00933,57.9,51.8,19,1074,0,98.8,13.39,0.00,0.00
15min,AgWx,beryljct,423,23APR2018:15:00:00,79.6,13.51,73.4,73.0,73.5,74.2,72.9,18,25,14,0.628,26.9,35.8,21.7,7.344,4.1,140,53,9.5,0.00381,0.00481,58.6,52.0,19,444,0,89.2,13.39,0.00,0.00
15min,AgWx,beryljct,423,23APR2018:15:15:00,78.4,13.54,73.0,72.9,73.0,73.5,72.7,17,24,14,0.516,25.7,33.9,21.1,1.578,2.5,127,45,8.9,0.00286,0.00353,59.2,52.2,19,338,0,85.2,13.39,0.00,0.00
15min,AgWx,beryljct,423,23APR2018:15:30:00,77.5,13.58,73.3,73.1,73.3,73.9,72.9,17,22,14,0.509,25.6,32.3,21.9,0.504,1.7,1.1,71,7.0,0.00243,0.00292,59.7,52.5,19,295,0,85.9,13.39,0.00,0.00
15min,AgWx,beryljct,423,23APR2018:15:45:00,76.9,13.63,73.4,74.8,73.3,75.1,71.6,20,29,14,0.438,29.2,38.5,23.0,8.72,4.9,290,23,9.6,0.00478,0.00592,60.0,52.7,19,658,0,88.1,13.39,0.00,0.00
15min,AgWx,beryljct,423,23APR2018:16:00:00,78.3,13.52,75.3,75.5,75.4,76.3,74.6,20,25,14,0.559,30.9,37.2,21.5,12.56,12.1,258,37,19.8,0.00726,0.00958,60.3,53.0,19,896,0,90.7,13.39,0.00,0.00
15min,AgWx,beryljct,423,23APR2018:16:15:00,78.8,13.52,74.9,75.3,75.0,76.1,74.1,18,26,15,0.509,29.1,37.2,24.6,12.19,12.6,233,30,19.3,0.00639,0.00873,60.5,53.2,19,739,0,85.9,13.39,0.00,0.00
15min,AgWx,beryljct,423,23APR2018:16:30:00,79.2,13.48,74.9,72.8,75.2,76.5,72.7,18,25,14,0.607,28.3,35.5,22.7,13.18,13.0,216,24,19.8,0.00620,0.00860,60.6,53.4,19,687,0,85.6,13.39,0.00,0.00
15min,AgWx,beryljct,423,23APR2018:16:45:00,77.8,13.53,73.3,73.2,73.2,75.2,71.5,19,24,13,0.589,27.7,33.7,20.9,12.36,9.0,237,28,16.9,0.00383,0.00553,60.7,53.7,19,362,0,79.1,13.39,0.00,0.00
15min,AgWx,beryljct,423,23APR2018:17:00:00,76.3,13.65,71.9,72.4,71.9,73.0,71.2,20,26,16,0.541,29.1,34.4,24.0,10.39,11.6,233,18,20.5,0.00361,0.00555,60.8,53.9,19,251,0,75.6,13.40,0.00,0.00
15min,AgWx,beryljct,423,23APR2018:17:15:00,75.6,13.58,73.2,74.7,73.1,74.7,72.3,18,23,14,0.506,26.6,32.5,21.2,8.97,11.5,218,19,20.1,0.00438,0.00644,60.9,54.1,19,444,0,78.5,13.40,0.00,0.00
15min,AgWx,beryljct,423,23APR2018:17:30:00,75.5,13.63,73.3,73.1,73.4,74.7,72.9,17,21,14,0.477,26.6,30.9,22.1,11.51,10.5,202,9.5,18.5,0.00354,0.00543,61.0,54.3,19,296,0,78.5,13.40,0.00,0.00
15min,AgWx,beryljct,423,23APR2018:17:45:00,75.1,13.59,72.7,72.2,72.8,73.2,72.2,19,22,15,0.525,27.9,31.6,22.6,12.12,11.8,208,12,19.2,0.00348,0.00549,61.0,54.5,19,283,0,77.5,13.40,0.00,0.00
15min,AgWx,beryljct,423,23APR2018:18:00:00,74.5,13.66,72.0,71.5,72.0,72.7,71.5,19,23,16,0.539,27.8,31.7,23.2,11.77,11.1,213,10,16.0,0.00308,0.00496,61.1,54.7,19,245,0,76.3,13.40,0.00,0.00
15min,AgWx,beryljct,423,23APR2018:18:15:00,74.0,13.63,72.3,72.2,72.3,72.9,71.5,19,22,15,0.479,27.1,31.1,22.4,11.77,12.1,206,9.4,19.0,0.00317,0.00519,61.1,54.9,19,229,0,76.0,13.40,0.00,0.00
15min,AgWx,beryljct,423,23APR2018:18:30:00,73.7,13.63,72.1,71.4,72.1,73.0,71.4,19,22,16,0.545,27.2,31.0,23.5,13.13,13.2,221,11,18.0,0.00320,0.00533,61.1,55.0,19,205,0,75.1,13.40,0.00,0.00
15min,AgWx,beryljct,423,23APR2018:18:45:00,73.3,13.65,71.7,72.1,71.6,72.2,70.9,19,23,16,0.447,26.9,30.8,22.7,13.11,12.3,217,10,17.8,0.00304,0.00504,61.1,55.2,19,207,0,74.3,13.40,0.00,0.00
15min,AgWx,beryljct,423,23APR2018:19:00:00,72.9,13.44,71.3,71.6,71.2,72.2,70.3,18,22,16,0.438,25.9,30.2,22.4,11.33,11.8,208,8.5,15.6,0.00251,0.00444,61.1,55.3,19,127,0,72.8,13.40,0.00,0.00
15min,AgWx,beryljct,423,23APR2018:19:15:00,72.2,13.38,70.7,70.6,70.8,71.6,70.3,19,21,17,0.473,26.1,29.2,24.1,8.92,10.4,211,9.5,16.2,0.00209,0.00381,61.0,55.5,19,101,0,71.6,13.40,0.00,0.00
15min,AgWx,beryljct,423,23APR2018:19:30:00,71.6,13.33,70.2,68.6,70.4,71.6,68.1,20,30,15,0.656,27.5,36.2,20.9,9.01,6.3,232,88,11.1,0.00089,0.00123,61.0,55.1,19,72,0,71.0,13.40,0.00,0.00
15min,AgWx,beryljct,423,23APR2018:19:45:00,70.5,13.26,67.1,66.0,67.3,68.6,66.0,31,34,27,0.739,35.4,37.0,33.7,6.84,9.4,57,12,12.9,0.00090,0.00116,60.9,55.7,19,38,0,67.5,13.40,0.00,0.00
15min,AgWx,beryljct,423,23APR2018:20:00:00,68.9,13.23,65.5,65.5,65.4,66.1,64.6,34,37,31,0.683,36.4,37.8,34.6,2.894,4.6,50,9.3,8.6,0.00042,0.00061,60.8,55.6,19,29,0,64.8,13.40,0.00,0.00
15min,AgWx,beryljct,423,23APR2018:20:15:00,67.3,13.19,64.8,64.2,64.8,66.0,63.6,34,37,31,0.718,35.7,37.4,34.3,8,4.6,55,9.6,9.7,0.00037,0.00055,60.7,55.9,19,18,0,63.2,13.40,0.00,0.00
15min,AgWx,beryljct,423,23APR2018:20:30:00,65.7,13.18,62.8,61.9,62.9,64.4,61.4,37,40,34,0.728,36.3,37.8,35.0,6.927,5.6,54,10,8.6,0.00041,0.00058,60.6,56.0,19,3,0,61.0,13.41,0.00,0.00
15min,AgWx,beryljct,423,23APR2018:20:45:00,64.0,13.17,61.9,61.5,61.7,63.2,60.0,38,42,35,0.645,35.7,37.3,33.2,4.976,5.2,56,18,8.3,0.00035,0.00051,60.5,56.1,19,0,0,59.3,13.41,0.00,0.00
15min,AgWx,beryljct,423,23APR2018:21:00:00,62.4,13.15,59.9,59.8,59.9,61.9,58.6,39,42,34,0.702,34.8,35.9,33.2,5.042,4.6,49,13,6.3,0.00026,0.00040,60.3,56.2,19,0,0,57.5,13.41,0.00,0.00
15min,AgWx,beryljct,423,23APR2018:21:15:00,60.9,13.14,59.2,58.3,59.2,60.2,58.3,40,43,39,0.679,35.1,36.2,34.2,3.639,3.3,36,18,6.3,0.00012,0.00021,60.1,56.3,19,0,0,56.3,13.41,0.00,0.00
15min,AgWx,beryljct,423,23APR2018:21:30:00,59.6,13.12,57.2,57.1,57.2,58.2,56.9,44,45,41,0.696,35.2,35.7,34.6,5.48,5.2,46,9.0,6.3,0.00026,0.00038,59.9,56.3,19,0,0,55.0,13.41,0.00,0.00
15min,AgWx,beryljct,423,23APR2018:21:45:00,58.4,13.13,57.2,56.6,57.1,57.3,56.6,44,45,43,0.701,35.3,35.7,34.9,1.556,3.8,72,7.3,5.6,0.00015,0.00024,59.6,56.4,19,0,0,54.5,13.42,0.00,0.00
15min,AgWx,beryljct,423,23APR2018:22:00:00,57.3,13.12,56.4,56.7,56.2,57.0,55.2,44,48,41,0.658,34.6,35.9,33.5,0,0.4,69,0.2,1.8,-0.00031,-0.00046,59.4,56.4,19,0,0,52.2,13.42,0.00,0.00
15min,AgWx,beryljct,423,23APR2018:22:15:00,56.4,13.1,56.2,55.9,56.1,57.0,55.3,44,46,41,0.668,34.3,35.1,33.7,0.702,1.1,338,23,2.2,-0.00019,-0.00026,59.1,56.4,20,0,0,51.7,13.42,0.00,0.00
15min,AgWx,beryljct,423,23APR2018:22:30:00,55.7,13.09,55.8,55.4,55.6,56.3,54.9,45,49,43,0.679,34.6,35.9,33.9,0.658,0.9,329,0.0,2.4,-0.00022,-0.00030,58.9,56.5,20,0,0,51.3,13.42,0.00,0.00
15min,AgWx,beryljct,423,23APR2018:22:45:00,55.0,13.09,55.2,55.1,55.0,55.8,54.0,46,50,44,0.666,34.6,35.7,34.1,2.17,2.2,334,6.4,3.8,-0.00004,-0.00002,58.6,56.5,20,0,0,51.5,13.42,0.00,0.00
15min,AgWx,beryljct,423,23APR2018:23:00:00,54.6,13.08,55.2,54.3,55.0,55.8,54.2,45,47,44,0.673,34.3,34.7,33.9,2.368,2.5,345,11,3.3,-0.00001,0.00003,58.4,56.5,20,0,0,51.6,13.42,0.00,0.00
15min,AgWx,beryljct,423,23APR2018:23:15:00,54.2,13.08,54.5,53.8,54.3,55.1,53.6,47,48,45,0.659,34.3,34.5,33.9,2.631,2.6,6.8,8.9,3.8,0.00001,0.00005,58.1,56.5,19,0,0,51.3,13.42,0.00,0.00
15min,AgWx,beryljct,423,23APR2018:23:30:00,53.8,13.08,52.8,52.0,52.8,53.8,51.6,49,52,46,0.665,33.9,34.6,33.5,3.486,3.8,26,10,5.6,0.00010,0.00018,57.8,56.4,20,0,0,50.4,13.43,0.00,0.00
15min,AgWx,beryljct,423,23APR2018:23:45:00,53.3,13.06,52.9,52.8,52.6,53.1,51.9,46,51,43,0.587,32.3,34.2,30.9,5.963,5.6,30,6.9,8.2,0.00024,0.00034,57.6,56.4,20,0,0,50.6,13.43,0.00,0.00
15min,AgWx,beryljct,423,24APR2018:00:00:00,53.1,13.06,52.8,52.1,52.7,53.3,51.9,42,44,39,0.554,30.1,31.3,29.3,6.62,5.3,23,7.1,7.8,0.00026,0.00036,57.4,56.4,19,0,0,50.7,13.43,0.00,0.00
15min,AgWx,beryljct,423,24APR2018:00:15:00,52.8,13.06,52.7,51.9,52.4,52.8,51.8,40,42,39,0.538,29.0,29.8,28.3,2.411,4.4,18,5.8,7.0,0.00020,0.00030,57.1,56.4,19,0,0,50.2,13.43,0.00,0.00
15min,AgWx,beryljct,423,24APR2018:00:30:00,52.0,13.05,50.8,50.6,50.7,51.9,50.1,44,47,41,0.547,29.8,30.8,28.8,1.25,0.9,5.4,7.1,2.6,-0.00021,-0.00029,56.9,56.3,19,0,0,47.5,13.43,0.00,0.00
15min,AgWx,beryljct,423,24APR2018:00:45:00,51.1,.,.,.,.,.,.,.,.,.,.,.,29.9,28.5,.,.,.,.,.,.,.,.,.,.,0,0,46.6,13.42,0.00,0.00
15min,AgWx,bigpiney,439,23APR2018:00:00:00,44.0,12.83,38.1,38.1,39.4,40.7,38.1,59,69,52,0.430,26.3,30.1,23.1,2.565,2.6,345,69,5.4,-0.00005,-0.00005,49.3,33.3,47,0,0,0.0,.,0.00,0.00
15min,AgWx,bigpiney,439,23APR2018:00:15:00,43.5,12.83,36.8,36.1,36.9,38.1,35.7,63,67,56,0.438,25.4,27.4,23.6,1.82,2.0,78,52,4.3,-0.00010,-0.00012,48.8,33.3,47,0,0,0.0,.,0.00,0.00
15min,AgWx,bigpiney,439,23APR2018:00:30:00,42.7,12.81,36.3,36.1,35.8,36.5,34.9,63,68,58,0.473,24.5,26.3,23.1,4.121,3.1,190,18,5.1,-0.00004,-0.00003,48.4,33.2,47,0,0,0.0,.,0.00,0.00
15min,AgWx,bigpiney,439,23APR2018:00:45:00,42.0,12.81,38.8,38.1,37.2,38.6,36.0,65,71,59,0.459,26.3,28.6,24.8,3.508,3.1,266,26,4.7,-0.00004,-0.00003,48.0,33.3,47,0,0,0.0,.,0.00,0.00
15min,AgWx,bigpiney,439,23APR2018:01:00:00,41.5,12.78,39.1,38.3,36.7,38.3,36.0,65,71,58,0.475,26.1,28.1,24.6,1.688,1.3,304,23,3.9,-0.00015,-0.00020,47.5,33.3,48,0,0,0.0,.,0.00,0.00
15min,AgWx,bigpiney,439,23APR2018:01:15:00,41.2,12.78,38.7,38.6,39.8,40.6,38.3,55,61,52,0.451,24.9,26.0,24.0,1.513,2.2,311,54,4.4,-0.00008,-0.00008,47.1,33.3,48,0,0,0.0,.,0.00,0.00
15min,AgWx,bigpiney,439,23APR2018:01:30:00,41.1,12.78,35.9,37.5,38.5,39.9,36.8,56,60,53,0.438,24.3,24.7,23.9,2.981,1.9,139,46,3.7,-0.00010,-0.00012,46.7,33.3,48,0,0,0.0,.,0.00,0.00
15min,AgWx,bigpiney,439,23APR2018:01:45:00,40.8,12.77,34.2,33.8,33.8,37.3,32.7,70,77,58,0.506,25.0,27.4,23.3,0,1.7,185,40,3.2,-0.00012,-0.00016,46.2,33.2,48,0,0,0.0,.,0.00,0.00
15min,AgWx,bigpiney,439,23APR2018:02:00:00,40.0,12.76,30.9,31.3,32.7,34.1,31.2,73,79,68,0.431,24.9,27.9,22.6,1.841,3.1,106,43,5.4,-0.00007,-0.00007,45.8,33.3,48,0,0,0.0,.,0.00,0.00
15min,AgWx,bigpiney,439,23APR2018:02:15:00,39.0,12.74,30.7,31.2,30.7,31.5,29.8,76,78,73,0.434,23.9,24.9,23.2,3.157,1.7,108,55,3.7,-0.00013,-0.00017,45.4,33.2,48,0,0,0.0,.,0.00,0.00
15min,AgWx,bigpiney,439,23APR2018:02:30:00,38.0,12.74,33.0,32.2,31.5,32.2,30.8,74,79,71,0.440,24.3,25.4,23.2,0,1.5,137,45,5.0,-0.00014,-0.00018,45.0,33.1,49,0,0,0.0,.,0.00,0.00
15min,AgWx,bigpiney,439,23APR2018:02:45:00,37.4,12.73,33.5,33.9,33.5,34.5,32.3,68,73,63,0.434,24.1,25.4,23.2,3.551,1.7,183,53,3.6,-0.00013,-0.00016,44.6,33.1,49,0,0,0.0,.,0.00,0.00
15min,AgWx,bigpiney,439,23APR2018:03:00:00,37.0,12.72,32.4,32.1,32.6,33.8,31.9,74,78,67,0.455,25.1,25.9,24.1,2.85,3.1,243,20,4.3,-0.00007,-0.00007,44.2,33.1,49,0,0,0.0,.,0.00,0.00
15min,AgWx,bigpiney,439,23APR2018:03:15:00,36.7,12.7,30.4,30.2,31.7,33.4,30.2,73,76,67,0.430,24.1,25.7,23.2,3.946,3.9,195,14,5.5,-0.00004,-0.00003,43.8,33.2,49,0,0,0.0,.,0.00,0.00
15min,AgWx,bigpiney,439,23APR2018:03:30:00,36.4,12.71,29.8,29.8,30.0,30.7,29.5,80,84,76,0.440,24.5,25.8,23.5,3.31,4.3,243,34,6.7,-0.00005,-0.00005,43.5,33.1,49,0,0,0.0,.,0.00,0.00
15min,AgWx,bigpiney,439,23APR2018:03:45:00,36.1,12.69,33.7,33.0,31.3,33.2,29.6,74,81,68,0.447,24.1,25.2,23.4,1.052,2.1,330,17,3.7,-0.00011,-0.00013,43.1,33.1,50,0,0,0.0,.,0.00,0.00
15min,AgWx,bigpiney,439,23APR2018:04:00:00,36.2,12.68,36.9,35.2,33.0,35.2,32.1,73,78,65,0.463,25.2,26.5,23.3,5.656,4.6,247,27,11.5,-0.00002,-0.00001,42.7,33.1,50,0,0,0.0,.,0.00,0.00
15min,AgWx,bigpiney,439,23APR2018:04:15:00,36.9,12.66,35.8,35.1,36.0,37.9,34.9,64,67,61,0.443,25.1,26.3,24.2,1.622,4.6,315,30,8.4,0.00002,0.00005,42.4,33.1,50,0,0,0.0,.,0.00,0.00
15min,AgWx,bigpiney,439,23APR2018:04:30:00,37.6,12.66,39.8,39.0,36.9,39.0,35.2,61,66,55,0.445,24.5,25.4,23.7,0,2.6,13,13,5.2,-0.00006,-0.00006,42.0,33.1,50,0,0,0.0,.,0.00,0.00
15min,AgWx,bigpiney,439,23APR2018:04:45:00,38.5,12.65,41.9,41.8,41.0,42.1,39.1,51,55,49,0.483,24.4,26.5,23.7,5.919,2.3,19,12,6.4,-0.00006,-0.00006,41.7,33.0,50,0,0,0.0,.,0.00,0.00
15min,AgWx,bigpiney,439,23APR2018:05:00:00,39.6,12.65,38.7,37.8,40.2,41.8,37.4,60,67,54,0.519,27.3,28.9,25.4,2.433,3.6,28,34,6.3,0.00000,0.00003,41.3,33.0,50,0,0,0.0,.,0.00,0.00
15min,AgWx,bigpiney,439,23APR2018:05:15:00,40.4,12.63,41.7,41.1,40.0,41.1,38.0,67,69,66,0.596,30.1,31.5,28.2,8.83,4.8,12,41,8.8,0.00001,0.00004,41.0,33.0,50,0,0,0.0,.,0.00,0.00
15min,AgWx,bigpiney,439,23APR2018:05:30:00,41.1,12.63,41.5,41.3,41.3,41.7,41.0,68,69,67,0.610,31.6,32.1,31.4,4.516,5.2,349,16,9.3,0.00003,0.00006,40.7,33.0,51,0,0,0.0,.,0.00,0.00
15min,AgWx,bigpiney,439,23APR2018:05:45:00,41.8,12.61,41.4,41.1,41.0,41.6,40.6,68,70,67,0.582,31.4,32.1,30.8,11.73,7.1,7.8,24,13.2,0.00008,0.00011,40.4,32.9,51,0,0,0.0,.,0.00,0.00
15min,AgWx,bigpiney,439,23APR2018:06:00:00,42.3,12.61,42.4,41.9,41.4,41.9,41.0,65,67,62,0.567,30.4,30.9,30.0,18.17,14.1,339,6.7,19.9,0.00022,0.00026,40.2,32.9,51,0,0,0.0,.,0.00,0.00
15min,AgWx,bigpiney,439,23APR2018:06:15:00,42.9,12.59,41.9,41.9,41.8,42.0,41.6,63,64,61,0.571,30.1,30.5,29.5,16.4,12.9,308,16,22.6,0.00022,0.00027,39.9,32.9,51,0,0,0.0,.,0.00,0.00
15min,AgWx,bigpiney,439,23APR2018:06:30:00,43.0,12.58,40.2,39.9,40.5,41.8,39.7,70,73,64,0.600,31.4,31.9,30.4,11.47,15.0,278,8.5,23.5,0.00018,0.00021,39.6,32.9,51,0,53,0.0,.,0.00,0.00
15min,AgWx,bigpiney,439,23APR2018:06:45:00,42.9,12.57,39.5,39.3,39.7,40.0,39.3,73,75,72,0.605,31.8,32.0,31.4,8.99,9.2,274,10,14.4,0.00037,0.00065,39.4,32.8,51,1,34,0.0,.,0.00,0.00